Regional Weather Roundup
Issued by NWS

Home | Current Version | Previous Version | Text Only | Print | Product List | Glossary On
Versions: 1 2 3 4 5 6 7 8 9 10 11 12 13 14 15 16 17 18 19 20 21 22 23 24 25 26 27
000
ASUS46 KPQR 112210
RWROR

OREGON REGIONAL WEATHER ROUNDUP
NATIONAL WEATHER SERVICE PORTLAND OR
200 PM PST MON DEC 11 2017

NOTE: "FAIR" INDICATES FEW OR NO CLOUDS BELOW 12,000 FEET WITH
NO SIGNIFICANT WEATHER AND/OR OBSTRUCTIONS TO VISIBILITY.

ORZ001>013-112300-
NORTHWEST OREGON


CITY           SKY/WX    TMP DP  RH WIND       PRES   REMARKS
ASTORIA        MOSUNNY   50  32  50 E9        30.31S
NEWPORT        SUNNY     54  32  43 E15       30.33
PORTLAND       MOSUNNY   44  27  51 SE15      30.43S
VANCOUVER WA   SUNNY     44  28  53 SE8       30.43S
SCAPPOOSE      SUNNY     45  26  47 S7        30.43R
HILLSBORO      SUNNY     46  26  45 SE9       30.42S
AURORA         MOSUNNY   47  27  45 N8        30.43R
MCMINNVILLE    SUNNY     47  28  47 N7        30.41F
SALEM          SUNNY     46  26  45 NE7       30.39F
CORVALLIS      SUNNY     39  30  70 S3        30.42S
EUGENE         MOSUNNY   38  31  76 NE8       30.40F WCI  32
$$

ORZ021-028-112300-
SOUTHWEST OREGON


CITY           SKY/WX    TMP DP  RH WIND       PRES   REMARKS
NORTH BEND     SUNNY     59  41  51 CALM      30.32R
BROOKINGS      SUNNY     69  25  19 SW3       30.31R
ROSEBURG       MOSUNNY   38  36  92 SW6       30.37F WCI  33
SEXTON SUMMIT  SUNNY     57  10  15 SE7       30.36F
GRANTS PASS    CLOUDY    32  32 100 CALM      30.45F FOG
MEDFORD        SUNNY     46  32  58 CALM      30.38F
$$

ORZ014>016-041-112300-
COLUMBIA GORGE


CITY           SKY/WX    TMP DP  RH WIND       PRES   REMARKS
TROUTDALE      MOSUNNY   40  25  55 E28G40    30.42F WCI  29
HOOD RIVER     CLOUDY    32  25  74 CALM      30.66F
THE DALLES     CLOUDY    36  25  64 SE6       30.68F WCI  31
$$

ORZ029>031-041-044-049-050-061>064-502-503-505>511-112300-
EASTERN OREGON


CITY           SKY/WX    TMP DP  RH WIND       PRES   REMARKS
MADRAS         MOSUNNY  N/A N/A N/A NE7       30.56F
REDMOND        SUNNY     31  19  61 NW8       30.49S WCI  23
BEND           SUNNY     36  19  51 N5        30.48S WCI  32
PRINEVILLE     SUNNY     30  27  86 CALM      30.48S
KLAMATH FALLS  SUNNY     44  20  38 CALM      30.44F
LAKEVIEW       SUNNY     47  19  33 CALM      30.45S
HERMISTON      CLOUDY    32  25  75 S5        30.65F WCI  27
PENDLETON      CLOUDY    29  24  82 NW3       30.59F
JOHN DAY       SUNNY     42  21  43 CALM      30.43F
MEACHAM        MOSUNNY   35  23  61 CALM      30.44F
LA GRANDE      SUNNY     36  22  56 S20G26    30.53F WCI  25
BAKER CITY     MOSUNNY   35  21  56 E8        30.56F WCI  29
BURNS          CLOUDY    23  19  85 NE5       30.54F WCI  17
ROME             N/A     20  14  77 SE5       30.55F WCI  13
ONTARIO        CLOUDY    30  24  78 CALM      30.70F
$$




USA.gov is the U.S. government's official web portal to all federal, state and local government web resources and services.